#timestamp,LO_Frequency,Hit,StdDev 
1681333215.0,286046999.5,N
1681333215.9,286046999.5,N
1681333235.8,286046998.6,N
1681333255.6,286046998.8,N
1681333275.4,286046998.9,N
1681333295.3,286046996.6,N
1681333315.1,286046997.6,N
1681333335.8,286046997.4,N
1681333355.7,286046997.6,N
1681333375.5,286046996.2,N
1681333395.4,286046995.2,Y
1681333415.2,286046996.5,P
1681333435.0,286046996.5,P
1681333435.9,286046996.5,P
1681333455.8,286046996.5,Y
1681333475.6,286047001.8,P
1681333495.4,286047001.9,N
1681333515.3,286047002.7,N
1681333535.1,286047001.9,N
1681333555.9,286046999.9,N
1681333575.7,286047000.6,N
1681333595.5,286046999.7,N
1681333615.4,286046999.7,N
1681333635.2,286047002.6,N
1681333655.0,286046999.9,N
1681333655.9,286046999.9,N
1681333675.8,286047000.1,N
1681333695.6,286047000.1,N
1681333715.5,286047000.9,N
1681333735.3,286047000.8,N
1681333755.1,286047002.4,N
1681333775.9,286047002.6,N
1681333795.7,286047002.5,N
1681333815.5,286047000.3,N
1681333835.4,286047000.9,N
1681333855.2,286047002.7,N
1681333875.1,286047004.4,Y
1681333876.0,286047004.4,P
1681333895.8,286047002.1,N
1681333915.6,286047002.3,N
1681333935.5,286047002.2,N
1681333955.3,286047001.8,N
1681333975.1,286047002.0,N
1681333995.9,286047002.7,N
1681334015.7,286046998.8,N
1681334035.6,286046999.2,N
1681334055.4,286046998.6,N
1681334075.2,286046998.4,N
1681334095.1,286046999.2,N
1681334096.0,286046999.2,N
1681334115.8,286046998.7,N
1681334135.7,286047001.2,N
1681334155.5,286046999.8,N
1681334175.3,286046998.1,N
1681334195.2,286047000.6,N
1681334215.0,286046998.5,N
1681334215.9,286046998.5,N
1681334235.7,286046998.8,N
1681334255.6,286046999.1,N
1681334275.4,286047001.0,N
1681334295.3,286047000.5,N
1681334315.1,286046999.8,N
1681334316.0,286046999.8,N
1681334335.8,286047001.0,N
1681334355.7,286047002.6,N
1681334375.5,286047000.3,N
1681334395.3,286047002.3,N
1681334415.2,286047001.0,N
1681334435.0,286047002.4,N
1681334435.9,286047002.4,N
1681334455.7,286047002.1,N
1681334475.6,286047000.2,N
1681334495.4,286046998.1,N
1681334515.3,286047000.3,N
1681334535.1,286046998.4,N
1681334536.0,286046998.4,N
1681334555.8,286046999.5,N
1681334575.7,286046996.5,N
1681334595.5,286046999.1,N
1681334615.3,286046996.8,N
1681334635.2,286046996.5,N
1681334655.0,286046998.1,N
1681334655.9,286046998.1,N
1681334675.8,286046996.5,N
1681334695.6,286046997.1,N
1681334715.4,286046999.2,N
1681334735.3,286047000.8,N
1681334755.1,286046998.5,N
1681334775.8,286046998.8,N
1681334795.7,286046998.3,N
1681334815.5,286046998.4,N
1681334835.4,286047000.4,N
1681334855.2,286047000.1,N
1681334875.0,286047001.9,N
1681334875.9,286047001.9,N
1681334895.8,286046999.9,N
1681334915.6,286047000.0,N
1681334935.4,286046999.3,N
1681334955.3,286046998.9,N
1681334975.1,286046996.5,N
1681334995.9,286046996.5,N
1681335015.7,286046997.8,N
1681335035.5,286046998.1,N
1681335055.4,286046998.5,N
1681335075.2,286046999.4,N
1681335095.0,286046996.5,N
1681335095.9,286046996.5,N
1681335115.8,286046998.6,N
1681335135.6,286047000.0,N
1681335155.4,286047000.4,N
1681335175.3,286046998.4,N
1681335195.1,286047001.1,N
1681335215.9,286046999.3,N
1681335235.7,286047000.9,N
1681335255.5,286046998.1,N
1681335275.4,286047000.2,N
1681335295.2,286047000.0,N
1681335315.0,286046999.1,N
1681335315.9,286046999.1,N
1681335335.8,286046996.6,N
1681335355.6,286046998.4,N
1681335375.5,286046999.4,N
1681335395.3,286046998.4,N
1681335415.1,286047001.1,N
1681335435.9,286047001.2,N
1681335455.7,286046998.9,N
1681335475.5,286046998.6,N
1681335495.4,286046999.4,N
1681335515.2,286046997.0,N
1681335535.0,286046997.0,N
1681335536.0,286046997.0,N
1681335555.8,286047000.8,N
1681335575.6,286046999.2,N
1681335595.5,286046997.0,N
1681335615.3,286046995.0,Y
1681335635.1,286046997.3,P
1681335655.9,286046999.6,N
1681335675.7,286046998.4,N
1681335695.6,286046997.0,Y
1681335715.4,286046998.3,P
1681335735.2,286046998.1,P
1681335755.1,286047000.3,N
1681335756.0,286047000.3,N
1681335775.8,286047000.8,N
1681335795.6,286046998.7,N
1681335815.5,286046999.2,N
1681335835.3,286047002.8,N
1681335855.1,286047002.6,N
1681335875.9,286047000.6,N
1681335895.7,286046999.0,N
1681335915.6,286046998.7,N
1681335935.4,286047000.6,N
1681335955.2,286046999.7,N
1681335975.1,286047002.5,N
1681335976.0,286047002.5,N
1681335995.8,286047004.3,N
1681336015.6,286047004.3,N
1681336035.5,286047001.9,N
1681336055.3,286047002.8,N
1681336075.2,286047001.9,N
1681336095.9,286046999.9,N
1681336115.7,286047000.5,N
1681336135.6,286046998.8,N
1681336155.4,286046998.2,N
1681336175.2,286047000.7,N
1681336195.1,286047000.7,N
1681336196.0,286047000.7,N
1681336215.8,286047001.1,N
1681336235.6,286046999.9,N
1681336255.5,286047002.7,N
1681336275.3,286047002.0,N
1681336295.2,286047000.1,N
1681336315.9,286047001.0,N
1681336335.7,286046998.7,N
1681336355.6,286046998.1,N
1681336375.4,286046998.8,N
1681336395.2,286046998.3,N
1681336415.1,286047001.2,N
1681336416.0,286047001.2,N
1681336435.8,286047001.0,N
1681336455.7,286046998.3,N
1681336475.5,286047000.5,N
1681336495.3,286047000.6,N
1681336515.2,286047001.6,N
1681336535.9,286047000.6,N
1681336555.7,286047000.4,N
1681336575.6,286047002.6,N
1681336595.4,286047002.1,N
1681336615.2,286047002.0,N
1681336635.1,286047002.8,N
1681336636.0,286047002.8,N
1681336655.8,286047002.7,N
1681336675.7,286047000.3,N
1681336695.5,286047000.7,N
1681336715.3,286047000.2,N
1681336735.2,286047000.4,N
1681336755.0,286046998.2,N
1681336755.9,286046998.2,N
1681336775.7,286046998.2,N
1681336795.6,286046998.2,N
